Location: Krasnoyarskiy Pitomnik
(51.1333°N, 71.6167°E)
Time: 10:15:15
(UTC+00:00)

Cosmos 2322 Rocket - Pass Details

Date: 22 October 2021
Orbit: 832 x 852 km, 71.0° (Epoch: 07 December)

Event Time Altitude Azimuth Distance (km) Brightness Sun altitude
Rises 15:11:57 0° 228° (SW) 3,368 5.7 -29.5°
Reaches altitude 10° 15:14:29 10° 234° (SW) 2,438 5.0 -29.8°
Maximum altitude 15:19:52 47° 308° (NW) 1,092 3.0 -30.6°
Enters shadow 15:22:46 26° 9° (N) 1,607 3.7 -31.0°
